COSMOS 1275 DEB, 12693

Orbit data source: Space-Track

COSMOS 1275 DEB, 12693 is space debris in LEO originally from a launch on Thu, 04 Jun 1981 UTC launched from the Plesetsk Missile And Space Complex (PKMTR). Debris objects in space refer to the collection of defunct objects orbiting the Earth. Examples of debris include non-operational satellites, rocket bodies, and fragments generated from explosions, collisions, or faulty payload assembly.

Loading next visibility...
Identifier
12693, 1981-053AM
Orbit
LEO
Last TLE update
11 hours ago
Origin
Manufacturer
Unknown
Mission
Spacecraft
Bus & Motor
Unknown
Mass
Unknown
Launch date (UTC)
1981-06-04 (44 years ago)
Launch vehicle
Unknown
Launch site
Plesetsk Missile And Space Complex (PKMTR)
Object type
Payload
Rocket body
Debris
Shape & HBR
Unknown
Radar Cross Section
Medium (>0.1 m² and <1 m²)

Expand to show TLE details & history

TLE from 11 hours ago
0 COSMOS 1275 DEB
1 12693U 81053AM  25181.82676615  .00000888  00000-0  40381-3 0  9999
2 12693  83.1436 209.4985 0047033  34.8055 138.2943 14.20198365938174
Epoch: 2025-06-30T19:50Z
TLE epoch observation values (Epoch: 2025-06-30T19:50:32.595Z)
Latitude
6.41868°
Longitude
171.96072°
Altitude
852.413 km
Speed
7.414 km/s
True Right ascension
01h 54m 54s
True Declination
6° 22' 52"
Sunlit
Object was in daylight at epoch
Visualization orbit readout
Latitude
-28.04189°
Longitude
-11.27316°
Altitude
818.859 km
Speed
7.451 km/s
Apparent Right ascension
10h 43m 54s
Apparent Declination
-48° 33' 26"
Sunlit
Object is in daylight
Visualization observer readout
Local Sidereal Time
18:22:01
Azimuth
236.495° WSW
Elevation
-43.769°
Doppler factor
1
Orbital elements
Apogee altitude
855.624 km
Perigee altitude
787.897 km
Semi-major axis
7,199.898 km
Eccentricity
0.0047
Inclination
83.1436°
RAAN
209.4985°
Arg. of periapsis
34.8055°
True anomaly
Unknown
Mean anomaly
138.2943°
Eccentric anomaly
Unknown
Mean motion
3.55266 °/min
Orbital period
101.33 mins
BSTAR
0.00040381
Loading maneuver chart data...
Loading SW <> Apogee altitude chart data...
Loading historical data...
Loading historical data...
Loading historical data...
Loading historical data...
Loading historical data...
Loading historical data...
Loading historical data...

COSMOS 1275 DEB Visibility forecast

Observer location: undefined°, undefined°

Span
Click to sort rows by Start time (UTC) header in descending order
Start Az.
Max El. time (UTC)
Max El. Az.
Max El.
End time (UTC)
End Az.
7 mins2025-07-01 12:31:10.785Z30.444° NE2025-07-01 12:34:10.785Z65.019° ENE17.176°2025-07-01 12:38:10.785Z112.45° ESE
9 mins2025-07-01 14:13:10.785Z339.522° N2025-07-01 14:17:10.785Z263.5° W39.362°2025-07-01 14:22:10.785Z192.257° SSW
7 mins2025-07-02 01:36:10.785Z131.475° SE2025-07-02 01:39:10.785Z86.893° E23.685°2025-07-02 01:43:10.785Z33.98° NE
7 mins2025-07-02 03:18:10.785Z231.749° WSW2025-07-02 03:21:10.785Z284.785° WNW29.179°2025-07-02 03:25:10.785Z344.03° N
|